Simultaneous Nadir Overpasses (SNOs) Predictions

Prediction of SNOs between GOES-17 and METOP-B Satellite Orbit:

Table of predicted SNOs for the next 14.0 days since TLE Epoch: 9/30/2023
Index Date Time (GOES-17) GOES-17 Lat,Lon METOP-B Lat,Lon Distance(km) Time Diff (sec)
1 10/01/2023 16:28:22 0.01,-104.72 0.15,-105.33 70.16 80
2 10/02/2023 16:10:23 0.01,-104.72 -0.99,-100.34 499.26 80
3 10/04/2023 04:29:22 -0.00,-104.70 -0.04,-104.94 27.14 80
4 10/06/2023 16:27:33 0.00,-104.73 -0.07,-104.51 24.92 80
5 10/09/2023 04:23:12 0.00,-104.71 0.15,-104.11 68.69 80
6 10/10/2023 16:42:02 -0.00,-104.74 0.87,-108.67 448.57 80
7 10/11/2023 16:24:02 -0.00,-104.74 -0.23,-103.68 121.33 80
8 10/13/2023 04:43:01 0.00,-104.74 -0.77,-108.28 403.12 80
